Location: Charleston
(38.3500°N, 81.6330°W)
Time: 17:24:32
(UTC-04:00)

Daily predictions for brighter satellites

Satellite Brightness Start Highest point End
(mag) Time Altitude Azimuth Time Altitude Azimuth Time Altitude Azimuth
SJ-6B 3.6 21:07:32 10° S 21:11:08 50° W 21:14:48 10° NNW
Envisat 3.9 21:10:12 10° S 21:15:08 51° W 21:20:05 10° NNW
Cosmos 1975 2.9 21:11:48 10° N 21:15:48 63° E 21:19:45 10° SSE
Timation 2 Rocket 3.9 21:09:54 10° SSW 21:15:51 88° ESE 21:21:57 10° NNE
Aureole 2 Rocket 4.1 21:14:49 10° NNE 21:16:21 13° ENE 21:17:51 10° E
Resurs 1-3 3.6 21:12:50 10° SSE 21:17:11 70° ENE 21:21:33 10° N
Cosmos 1455 Rocket 4.4 21:17:23 10° NNE 21:20:53 23° ENE 21:24:21 10° SE
H-2A R/B 3.5 21:17:43 10° ESE 21:21:13 20° ENE 21:24:48 10° NNE
Cosmos 1743 2.9 21:17:27 10° N 21:21:13 54° E 21:24:56 10° SSE
Cosmos 2346 Rocket 4.5 21:15:01 10° N 21:21:15 74° E 21:27:22 10° SSE
Iridium 2 4.4 21:18:27 10° SSE 21:21:55 34° E 21:25:24 10° NNE
Cosmos 1378 Rocket 4.2 21:20:16 10° SSW 21:24:30 58° W 21:28:46 10° N
GPS 2-05 Rocket1 3.8 21:24:32 10° SW 21:27:21 26° SSE 21:30:00 11° ESE
SJ-11-01 4.3 21:23:48 10° SSE 21:28:31 82° ENE 21:33:17 10° N
Cosmos 1975 Rocket 3.0 21:26:42 10° S 21:31:00 74° E 21:35:18 10° N
Cosmos 2084 4.5 21:27:24 10° SW 21:31:38 50° NW 21:35:40 10° NNE
Okean 1 Rocket 3.9 21:31:08 10° NNW 21:35:20 50° W 21:39:30 10° SSW
Cosmos 1833 4.4 21:32:41 10° S 21:38:13 51° ESE 21:43:42 10° NNE
ATLAS CENTAUR R/B 4.3 21:37:47 10° WNW 21:40:28 15° WSW 21:43:12 10° SW
ARGOS 3.8 21:37:34 13° SE 21:42:04 41° ENE 21:47:07 10° N
Meteor 2-4 Rocket 3.7 21:36:57 10° S 21:42:15 58° E 21:47:45 10° NNE
Meteor 1-12 Rocket 4.5 21:36:49 10° N 21:42:49 84° W 21:48:51 10° S
Cosmos 1242 Rocket 2.6 21:39:25 10° NNW 21:43:04 78° W 21:46:38 10° S
Cosmos 540 Rocket 4.0 21:40:01 10° SSE 21:44:45 38° ESE 21:49:30 10° NE
USA 186 4.1 21:44:52 10° SSW 21:47:35 24° W 21:50:24 10° NW
Cosmos 1544 Rocket 4.0 21:44:23 10° N 21:48:40 46° E 21:51:53 17° SSE
Cosmos 2150 Rocket 4.2 21:43:31 10° NNW 21:48:51 62° ENE 21:53:01 16° SSE
NOAA 11 4.3 21:44:34 10° S 21:50:02 79° WSW 21:55:30 10° NNW
Cosmos 2322 Rocket 2.3 21:47:02 10° NNW 21:52:39 76° WSW 21:57:49 12° SSE
Shenzhou-11 Module 2.0 21:49:51 10° WNW 21:52:49 73° NNE 21:54:34 22° ESE
Spot 2 Rocket 3.7 21:48:30 10° S 21:53:30 72° WSW 21:58:33 10° NNW
Lacrosse 5 rocket 2.4 21:50:42 10° NNW 21:54:44 36° NE 21:57:27 17° E
SJ 16-02 2.6 21:52:36 10° N 21:56:25 27° ENE 21:58:37 18° ESE
Cosmos 1763 Rocket 4.1 21:53:18 10° SSW 21:58:32 60° WNW 22:03:45 10° N
Cosmos 1937 Rocket 3.6 21:54:41 10° NNW 21:59:49 72° WSW 22:04:21 13° S
Tiangong 2 2.6 21:57:08 10° WNW 22:00:04 34° N 22:03:00 10° ENE
SL-16 R/B 2.7 21:57:59 10° NNW 22:03:32 57° WSW 22:08:42 12° S
Cosmos 1536 Rocket 3.8 22:01:18 17° SSE 22:04:28 49° E 22:08:47 10° NNE
Cosmos 841 Rocket 3.7 22:00:44 10° SSW 22:05:57 75° WNW 22:11:15 10° NNE
Cosmos 292 Rocket 3.9 22:01:35 10° SSW 22:06:19 76° WNW 22:11:06 10° NNE
MetOp-B 4.3 22:02:54 19° SE 22:06:36 57° ENE 22:11:50 10° N
BREEZE M DEB (TANK) 3.2 21:56:57 10° NW 22:07:09 76° NNE 22:09:21 24° ESE
Cosmos 2298 Rocket 4.2 22:05:12 10° NNW 22:10:29 75° WSW 22:14:30 18° S
Resurs 01 Rocket 3.4 22:10:18 10° SSW 22:14:04 28° W 22:17:51 10° NW
USA 234 3.3 22:09:11 10° NE 22:15:45 84° NW 22:22:20 10° SW
Cosmos 1340 Rocket 3.1 22:12:09 10° SSW 22:16:11 69° W 22:20:16 10° N
CZ-4C R/B 3.8 22:11:09 10° NNW 22:17:48 38° NE 22:23:08 18° ESE
Cosmos 2219 4.0 22:20:18 26° SE 22:22:08 31° ESE 22:27:08 10° NE
DELTA 2 R/B (1) 3.9 22:17:07 10° SW 22:22:17 41° SSE 22:26:36 14° E
USA 32 4.1 22:17:48 10° N 22:23:03 77° W 22:27:06 17° S
Nadezhda 4 Rocket 4.4 22:18:29 10° N 22:24:35 48° E 22:27:44 27° SE
Cosmos 2237 4.3 22:20:40 10° NNW 22:26:22 63° ENE 22:29:14 30° SE
SL-08 RB Rocket 3.6 22:24:27 28° SSE 22:26:51 84° ENE 22:31:27 10° N
CSL-04 DEB 4.3 22:27:35 34° SSE 22:29:22 82° ENE 22:33:27 10° NNW
ERS-1 Rocket 2.9 22:27:39 29° SSE 22:30:10 72° ENE 22:35:12 10° N
CZ-2C R/B 4.4 22:34:09 10° NE 22:37:25 17° E 22:37:25 17° E
CENTAUR R/B 3.6 22:33:12 10° WSW 22:38:55 45° NW 22:45:28 10° NNE
Cosmos 2360 Rocket 2.3 22:35:25 10° NNW 22:41:02 70° WSW 22:43:54 30° S
Cosmos 1025 Rocket 3.1 22:40:14 44° SE 22:41:16 57° E 22:45:33 10° NNE
Cosmos 2219 Rocket 3.1 22:38:39 10° N 22:43:44 35° ENE 22:45:43 27° E
Meteor 1-15 Rocket 4.2 22:39:17 10° N 22:45:00 86° W 22:47:47 31° S
Cosmos 2333 4.4 22:42:50 10° NNW 22:48:28 59° ENE 22:50:29 38° SE
Aureole 2 Rocket 4.3 22:49:12 10° WNW 22:51:02 16° W 22:51:29 15° WSW
CZ-2C R/B 4.2 22:50:58 26° E 22:52:26 30° ENE 22:57:17 10° N
Okean 2 3.5 22:53:27 41° SSW 22:54:49 76° W 22:59:01 10° N
SPOT 1/Viking Rocket 3.5 22:55:11 44° SSE 22:56:51 77° ENE 23:02:01 10° N
Meteor 1-29 4.0 22:54:55 10° NNE 22:57:17 34° NE 22:57:17 34° NE
Cosmos 783 Rocket 4.4 22:56:58 41° S 22:58:44 69° ESE 23:04:01 10° NNE
Cosmos 2034 Rocket 4.4 22:54:59 15° SSW 23:00:09 61° W 23:06:16 10° N
H-2A R/B 2.8 22:57:46 25° SSW 23:00:16 45° W 23:05:06 10° NNW
Cosmos 1125 Rocket 3.4 22:55:19 10° NNW 23:00:35 84° WSW 23:02:08 47° S
USA 245 3.8 23:00:38 43° SW 23:01:23 51° W 23:05:42 10° NNW
Helios 1A 2.9 23:00:58 61° S 23:01:40 81° WSW 23:05:51 10° NNW
Landsat 7 3.8 23:02:11 54° SE 23:03:08 72° ENE 23:07:53 10° N
Cosmos 1356 Rocket 3.8 23:07:09 42° SW 23:08:23 64° W 23:12:40 10° N
COSMOS 2455 3.5 23:14:03 36° E 23:14:03 36° E 23:19:06 10° NE
Cosmos 2333 Rocket 2.5 23:08:51 10° NNW 23:14:28 55° ENE 23:15:46 45° ESE
SL-16 R/B 4.4 23:11:48 10° NNE 23:14:32 14° NE 23:16:59 11° ENE
COSMOS 2428 2.6 23:11:40 10° NNW 23:17:22 87° WSW 23:18:42 55° SSE
YAOGAN 11 4.5 23:19:00 51° ENE 23:19:04 51° ENE 23:23:28 10° N
Spot 1 3.8 23:19:22 79° NE 23:19:22 79° NE 23:23:20 10° N
Cosmos 1627 Rocket 4.5 23:15:42 10° N 23:21:48 63° E 23:23:06 51° SE
Terra 1.7 23:21:33 68° ESE 23:21:56 73° ENE 23:26:42 10° N
Cosmos 1980 4.4 23:18:35 10° N 23:23:52 39° ENE 23:24:56 35° E
Helios 1B rocket 2.9 23:19:52 10° N 23:23:56 58° WNW 23:24:33 51° WSW
Cosmos 1634 Rocket 3.9 23:23:15 46° S 23:25:17 84° E 23:31:39 10° N
SPOT 5 3.3 23:26:23 42° SW 23:27:03 46° W 23:31:28 10° NNW
Cosmos 2297 Rocket 2.8 23:29:00 40° E 23:29:00 40° E 23:33:40 10° NE
Cosmos 1892 Rocket 3.8 23:31:41 57° NE 23:31:41 57° NE 23:35:21 10° NNE
Nimbus 7 Rocket 4.3 23:25:29 10° NNE 23:31:24 79° ESE 23:32:43 56° S
Cosmos 2227 Rocket 2.4 23:32:28 50° E 23:32:28 50° E 23:37:39 10° NNE
Lacrosse 5 rocket 3.0 23:30:18 10° WNW 23:33:08 24° WSW 23:33:08 24° WSW
SJ 16-02 3.0 23:31:18 10° NW 23:34:51 24° W 23:35:37 23° WSW
IGS 5A 3.7 23:35:34 63° WNW 23:35:34 63° WNW 23:39:28 10° NNW
Tiangong 2 3.4 23:33:56 10° WNW 23:35:16 22° WNW 23:35:16 22° WNW
Cosmos 2228 3.6 23:34:58 10° N 23:38:31 50° NE 23:38:31 50° NE
Cosmos 2237 Rocket 2.6 23:35:40 10° NNW 23:41:13 50° ENE 23:41:55 47° E
Cosmos 1953 4.4 23:41:39 10° NNE 23:43:28 18° NE 23:43:28 18° NE
Iridium 4 Rocket 4.3 23:46:41 44° E 23:46:45 44° E 23:52:18 10° NNE
Cosmos 2082 4.1 23:48:07 49° E 23:48:07 49° E 23:53:03 10° NNE
Okean 1-7 Rocket 4.4 23:48:20 43° W 23:48:52 45° W 23:53:14 10° N
Cosmos 1726 Rocket 3.8 23:46:33 10° N 23:50:28 67° NW 23:50:28 67° NW
